Temp
-18 -18 -18 -18 -18 -18 -17 -17 -17 -17 -17 -16 -16 -16 -16 -16 -16 -16 -16 -16 -16 -16 -16 -16 -16 -17 -17 -17 -17 -16 -16 -16 -17 -16 -16 -16 -16 -16 -16 -16 -16 -16 -16 -16 -15 -16 -16 -16 -16 -16 -16 -16 -15 -15
-19 -19 -18 -18 -18 -18 -17 -17 -17 -16 -16 -16 -16 -16 -15 -15 -15 -16 -16 -16 -16 -16 -16 -16 -16 -17 -17 -17 -17 -17 -16 -16 -16 -17 -16 -16 -16 -16 -16 -16 -16 -16 -15 -15 -15 -15 -15 -15 -15 -15 -15 -15 -15 -15
-19 -18 -18 -18 -18 -18 -17 -18 -18 -19 -19 -18 -18 -17 -17 -17 -17 -17 -17 -19 -18 -17 -17 -17 -17 -17 -18 -18 -18 -17 -17 -17 -17 -17 -16 -17 -16 -16 -16 -16 -16 -16 -16 -16 -15 -15 -15 -15 -15 -15 -15 -15 -15 -15
-19 -20 -22 -22 -22 -22 -22 -23 -23 -22 -22 -21 -21 -21 -21 -22 -22 -23 -24 -23 -22 -21 -21 -19 -18 -18 -18 -18 -18 -18 -17 -17 -18 -18 -18 -18 -17 -17 -17 -17 -16 -16 -16 -16 -16 -16 -16 -16 -16 -16 -15 -15 -15 -15
-25 -26 -27 -27 -26 -25 -24 -23 -23 -23 -24 -24 -24 -24 -24 -24 -23 -25 -23 -23 -23 -23 -21 -20 -20 -20 -19 -19 -19 -18 -18 -18 -19 -18 -18 -17 -17 -17 -17 -17 -17 -17 -16 -16 -16 -16 -16 -16 -16 -16 -16 -16 -16 -15
-29 -29 -29 -28 -26 -25 -24 -24 -23 -23 -23 -24 -24 -25 -25 -24 -24 -23 -23 -22 -23 -23 -22 -22 -21 -20 -20 -19 -19 -18 -18 -18 -19 -19 -19 -19 -18 -17 -17 -17 -17 -17 -17 -16 -16 -16 -16 -16 -16 -16 -16 -16 -16 -16
-30 -30 -29 -28 -27 -25 -24 -24 -23 -23 -23 -23 -24 -24 -24 -24 -24 -24 -23 -23 -22 -22 -22 -22 -21 -21 -20 -20 -19 -19 -19 -19 -18 -19 -19 -18 -18 -18 -17 -17 -17 -16 -16 -17 -16 -16 -16 -16 -16 -16 -16 -16 -16 -16
-30 -30 -29 -28 -27 -25 -24 -24 -24 -23 -24 -23 -23 -24 -24 -23 -23 -23 -23 -22 -22 -22 -22 -21 -21 -21 -20 -20 -20 -20 -20 -20 -19 -19 -19 -19 -18 -18 -17 -17 -17 -17 -16 -16 -16 -16 -16 -16 -16 -16 -16 -16 -16 -16
-30 -30 -29 -28 -26 -25 -25 -24 -24 -23 -23 -23 -23 -23 -23 -23 -23 -22 -22 -22 -23 -22 -21 -21 -21 -21 -20 -21 -21 -21 -21 -21 -21 -20 -19 -19 -18 -18 -18 -17 -17 -17 -17 -16 -16 -16 -16 -16 -17 -17 -17 -17 -17 -17
-30 -30 -29 -28 -26 -25 -24 -24 -24 -24 -24 -23 -23 -23 -23 -23 -23 -23 -23 -22 -23 -22 -22 -22 -22 -21 -21 -21 -21 -21 -21 -21 -21 -21 -20 -19 -18 -19 -18 -18 -17 -17 -17 -17 -17 -16 -17 -17 -17 -17 -17 -17 -17 -17
-30 -30 -29 -28 -26 -26 -25 -25 -24 -24 -24 -24 -24 -24 -23 -23 -23 -23 -23 -23 -23 -23 -23 -22 -23 -22 -22 -21 -22 -22 -22 -22 -22 -21 -20 -19 -19 -19 -19 -18 -18 -17 -17 -17 -17 -17 -17 -17 -17 -17 -17 -18 -18 -18
-30 -30 -29 -28 -26 -26 -25 -25 -24 -24 -24 -24 -24 -24 -24 -24 -24 -23 -23 -23 -23 -23 -23 -22 -22 -22 -22 -22 -23 -22 -22 -22 -21 -21 -20 -19 -19 -19 -19 -19 -18 -18 -18 -17 -17 -17 -17 -17 -17 -18 -18 -18 -18 -18
-30 -30 -29 -28 -27 -26 -25 -25 -25 -24 -24 -24 -24 -24 -24 -24 -24 -24 -24 -23 -22 -22 -22 -22 -22 -22 -22 -23 -23 -23 -23 -22 -21 -21 -20 -20 -19 -19 -19 -20 -19 -19 -19 -19 -19 -19 -19 -19 -19 -19 -19 -19 -19 -19
-30 -30 -29 -29 -28 -26 -25 -25 -25 -25 -24 -24 -24 -24 -24 -24 -24 -24 -24 -23 -23 -23 -23 -23 -23 -23 -23 -23 -24 -23 -23 -22 -22 -21 -20 -20 -20 -20 -20 -20 -20 -20 -20 -20 -20 -20 -20 -20 -20 -20 -20 -20 -20 -20
-30 -30 -29 -29 -28 -27 -26 -25 -25 -25 -25 -25 -25 -24 -24 -24 -24 -24 -24 -23 -23 -23 -23 -23 -23 -23 -23 -23 -23 -23 -22 -22 -21 -20 -20 -20 -21 -21 -21 -21 -21 -20 -20 -20 -20 -20 -20 -20 -20 -20 -20 -20 -20 -20
-30 -30 -30 -29 -29 -28 -27 -26 -26 -25 -25 -25 -25 -25 -24 -24 -24 -24 -24 -24 -24 -24 -24 -24 -24 -24 -23 -24 -24 -23 -23 -22 -21 -21 -21 -21 -21 -21 -21 -21 -21 -21 -21 -21 -21 -21 -21 -21 -21 -21 -21 -21 -21 -21
-31 -30 -30 -30 -30 -29 -28 -27 -27 -26 -25 -25 -25 -24 -24 -24 -24 -25 -24 -24 -24 -24 -24 -24 -24 -24 -24 -24 -24 -23 -23 -22 -22 -22 -22 -22 -22 -22 -22 -22 -22 -21 -22 -22 -22 -22 -22 -22 -22 -22 -22 -21 -21 -21
-32 -31 -31 -30 -30 -30 -29 -28 -27 -27 -27 -26 -26 -25 -25 -25 -25 -25 -24 -24 -24 -25 -24 -24 -24 -24 -24 -24 -24 -23 -23 -23 -23 -23 -22 -23 -23 -23 -22 -23 -23 -23 -23 -23 -23 -23 -22 -22 -22 -22 -22 -22 -22 -22
-32 -32 -31 -31 -31 -30 -30 -29 -29 -28 -27 -27 -27 -26 -26 -26 -26 -25 -25 -25 -25 -25 -24 -24 -24 -24 -24 -24 -24 -24 -24 -24 -24 -23 -23 -23 -24 -24 -24 -24 -24 -24 -23 -23 -24 -23 -23 -23 -23 -23 -23 -23 -23 -23
-32 -32 -32 -31 -31 -30 -30 -30 -29 -29 -29 -28 -28 -27 -27 -27 -27 -26 -26 -26 -26 -26 -26 -26 -26 -26 -26 -25 -25 -25 -25 -25 -25 -25 -24 -24 -24 -24 -24 -24 -24 -24 -24 -24 -24 -24 -24 -24 -24 -23 -23 -23 -23 -23
-33 -32 -32 -32 -32 -31 -31 -30 -30 -30 -29 -29 -29 -29 -28 -28 -27 -27 -27 -27 -27 -27 -27 -26 -26 -27 -27 -27 -26 -26 -26 -26 -26 -25 -25 -25 -25 -25 -25 -25 -25 -25 -25 -24 -24 -24 -24 -24 -24 -24 -24 -24 -24 -24
-33 -33 -33 -32 -32 -32 -32 -31 -31 -31 -30 -30 -29 -29 -29 -28 -28 -28 -28 -28 -27 -27 -27 -26 -26 -26 -27 -27 -27 -27 -26 -26 -26 -26 -26 -26 -25 -25 -25 -25 -25 -25 -25 -24 -24 -24 -24 -24 -24 -25 -25 -25 -25 -25
-34 -34 -33 -33 -33 -32 -32 -32 -32 -31 -31 -31 -31 -30 -30 -29 -29 -29 -28 -28 -28 -28 -28 -28 -28 -27 -27 -27 -27 -26 -26 -26 -26 -26 -26 -26 -26 -26 -26 -26 -26 -26 -26 -26 -26 -26 -26 -26 -26 -26 -26 -26 -27 -27
-34 -34 -34 -34 -34 -33 -33 -33 -33 -33 -33 -32 -32 -31 -31 -30 -30 -30 -29 -29 -29 -29 -29 -28 -28 -28 -28 -28 -28 -28 -28 -27 -27 -27 -27 -27 -27 -27 -27 -27 -27 -27 -27 -27 -27 -27 -27 -27 -27 -27 -28 -28 -29 -29
-35 -34 -34 -34 -34 -34 -34 -34 -34 -34 -34 -34 -33 -33 -33 -32 -32 -31 -31 -30 -30 -30 -30 -29 -29 -29 -29 -29 -29 -28 -28 -28 -28 -28 -28 -28 -28 -28 -28 -28 -28 -28 -28 -28 -28 -28 -28 -29 -29 -30 -30 -30 -31 -31
-34 -34 -34 -34 -34 -34 -34 -34 -34 -34 -34 -34 -34 -34 -34 -33 -33 -33 -33 -33 -32 -32 -32 -31 -31 -30 -30 -30 -30 -30 -29 -29 -29 -29 -29 -29 -30 -30 -30 -30 -30 -30 -30 -30 -31 -31 -31 -31 -31 -31 -31 -31 -30 -30
-34 -34 -34 -34 -34 -34 -34 -34 -34 -34 -35 -35 -34 -34 -34 -34 -34 -34 -34 -34 -34 -34 -34 -33 -33 -33 -33 -33 -32 -32 -32 -32 -32 -32 -32 -32 -32 -32 -32 -32 -32 -32 -32 -32 -31 -31 -31 -31 -31 -31 -30 -30 -30 -30
-34 -33 -33 -33 -33 -33 -34 -34 -34 -34 -34 -34 -35 -34 -34 -34 -34 -34 -34 -34 -34 -34 -34 -34 -34 -34 -34 -33 -33 -33 -33 -33 -33 -33 -33 -33 -32 -32 -32 -32 -32 -32 -31 -31 -31 -31 -31 -30 -30 -30 -30 -30 -30 -30
-33 -33 -33 -33 -33 -32 -32 -33 -33 -33 -34 -34 -34 -34 -34 -34 -34 -34 -34 -34 -34 -34 -33 -33 -33 -33 -33 -33 -33 -33 -33 -33 -33 -33 -33 -33 -33 -33 -32 -32 -32 -32 -32 -32 -32 -32 -31 -31 -31 -31 -31 -31 -31 -31
-34 -33 -33 -33 -33 -33 -32 -32 -32 -32 -33 -33 -33 -33 -33 -33 -33 -33 -33 -33 -33 -33 -33 -33 -33 -33 -33 -33 -33 -33 -33 -33 -33 -33 -33 -33 -33 -33 -33 -33 -32 -32 -32 -32 -31 -31 -31 -32 -32 -32 -32 -32 -32 -32
-33 -33 -33 -33 -33 -33 -32 -32 -32 -32 -32 -32 -32 -33 -33 -33 -33 -33 -33 -33 -33 -33 -33 -33 -33 -33 -33 -34 -34 -34 -34 -34 -34 -34 -34 -33 -33 -33 -32 -32 -32 -32 -32 -32 -33 -33 -33 -33 -33 -32 -32 -32 -32 -32
-33 -33 -33 -33 -33 -33 -32 -32 -32 -32 -32 -32 -32 -32 -32 -33 -33 -33 -33 -33 -33 -33 -33 -33 -34 -34 -34 -34 -34 -34 -34 -34 -34 -34 -33 -33 -33 -33 -33 -33 -33 -34 -34 -34 -33 -33 -33 -33 -32 -32 -32 -32 -31 -31
-34 -33 -33 -33 -33 -33 -33 -32 -32 -32 -32 -32 -32 -32 -32 -32 -32 -32 -32 -33 -33 -33 -34 -34 -34 -34 -34 -34 -35 -34 -34 -34 -34 -34 -34 -34 -33 -33 -34 -34 -34 -34 -34 -33 -33 -33 -33 -32 -32 -32 -32 -31 -31 -31
Height
5535 5535 5534 5533 5533 5532 5533 5535 5536 5538 5540 5542 5547 5552 5557 5564 5570 5573 5586 5592 5599 5610 5623 5629 5637 5643 5649 5653 5659 5661 5662 5665 5666 5668 5670 5670 5670 5669 5668 5667 5666 5665 5664 5664 5663 5662 5662 5660 5660 5661 5661 5660 5661 5663
5513 5512 5510 5509 5506 5505 5505 5506 5505 5503 5505 5507 5512 5517 5522 5527 5535 5543 5551 5567 5574 5586 5604 5611 5621 5629 5636 5642 5648 5651 5654 5656 5659 5659 5662 5663 5664 5665 5665 5665 5664 5664 5663 5662 5662 5662 5661 5660 5660 5660 5660 5661 5661 5662
5489 5487 5483 5479 5476 5476 5475 5473 5468 5466 5465 5468 5470 5474 5478 5485 5494 5506 5519 5534 5546 5563 5579 5592 5605 5615 5623 5630 5637 5642 5643 5648 5651 5652 5652 5654 5656 5658 5658 5659 5659 5660 5660 5659 5660 5659 5658 5658 5658 5658 5658 5658 5659 5659
5462 5459 5454 5450 5449 5449 5449 5449 5448 5446 5439 5435 5435 5438 5447 5457 5470 5482 5497 5515 5530 5549 5560 5574 5587 5598 5610 5618 5625 5630 5634 5638 5642 5645 5645 5647 5650 5651 5651 5652 5653 5654 5654 5654 5654 5654 5654 5654 5654 5654 5654 5654 5654 5654
5437 5435 5434 5433 5434 5435 5437 5438 5439 5431 5417 5410 5407 5413 5424 5440 5457 5472 5492 5505 5520 5542 5550 5563 5575 5585 5597 5607 5613 5619 5624 5628 5633 5637 5639 5641 5642 5644 5644 5646 5647 5647 5647 5648 5648 5648 5648 5648 5648 5648 5648 5647 5647 5646
5422 5423 5424 5425 5425 5426 5428 5432 5434 5428 5425 5413 5408 5410 5422 5440 5455 5465 5481 5494 5512 5531 5541 5552 5565 5575 5585 5594 5602 5607 5613 5619 5623 5627 5630 5632 5633 5635 5637 5639 5640 5640 5640 5640 5640 5640 5640 5640 5641 5640 5640 5640 5639 5639
5414 5416 5417 5418 5418 5420 5423 5427 5429 5427 5426 5424 5422 5425 5433 5446 5458 5470 5484 5502 5514 5521 5533 5545 5555 5564 5575 5583 5591 5596 5602 5608 5612 5617 5621 5623 5625 5625 5628 5631 5630 5629 5630 5630 5631 5631 5631 5632 5632 5632 5632 5632 5631 5631
5408 5409 5411 5411 5412 5415 5419 5422 5425 5426 5427 5428 5430 5435 5439 5454 5464 5477 5488 5495 5507 5519 5530 5535 5544 5557 5565 5573 5580 5585 5591 5596 5601 5606 5611 5613 5615 5616 5619 5622 5620 5618 5619 5620 5620 5621 5621 5621 5622 5623 5622 5622 5622 5621
5402 5404 5405 5406 5408 5411 5415 5419 5422 5426 5425 5432 5438 5441 5449 5458 5470 5480 5486 5496 5506 5515 5517 5524 5540 5549 5554 5563 5569 5575 5580 5585 5590 5595 5600 5602 5605 5608 5610 5610 5610 5610 5609 5609 5610 5611 5611 5611 5611 5612 5612 5612 5611 5610
5396 5398 5400 5401 5405 5407 5412 5417 5422 5425 5429 5433 5442 5448 5454 5461 5469 5478 5484 5488 5497 5504 5514 5522 5530 5539 5547 5555 5560 5567 5571 5575 5579 5584 5588 5592 5596 5598 5599 5600 5599 5600 5600 5599 5599 5600 5600 5601 5601 5601 5601 5601 5600 5599
5392 5394 5395 5396 5400 5405 5410 5416 5421 5426 5431 5436 5441 5448 5453 5459 5468 5473 5480 5486 5492 5500 5509 5518 5524 5533 5540 5547 5552 5556 5560 5564 5567 5574 5577 5580 5586 5588 5589 5589 5589 5588 5589 5589 5589 5588 5588 5589 5589 5589 5589 5588 5588 5587
5388 5390 5391 5392 5396 5401 5407 5413 5419 5425 5427 5434 5441 5448 5452 5456 5463 5466 5474 5483 5491 5499 5509 5516 5522 5528 5533 5537 5541 5546 5550 5554 5558 5563 5566 5569 5574 5577 5577 5577 5577 5576 5575 5576 5577 5578 5577 5577 5577 5577 5576 5576 5575 5574
5384 5386 5387 5389 5392 5397 5403 5409 5415 5421 5426 5432 5437 5443 5449 5454 5458 5464 5467 5478 5488 5499 5505 5512 5517 5520 5524 5528 5530 5534 5537 5542 5546 5549 5555 5560 5561 5564 5564 5564 5564 5564 5563 5563 5564 5565 5565 5565 5565 5565 5565 5563 5562 5561
5381 5383 5384 5387 5390 5393 5398 5405 5412 5418 5424 5429 5434 5439 5443 5449 5455 5462 5470 5476 5481 5488 5495 5500 5506 5510 5514 5517 5518 5522 5526 5531 5532 5539 5546 5549 5548 5549 5550 5551 5550 5551 5551 5551 5551 5551 5552 5553 5553 5552 5552 5552 5551 5550
5378 5380 5382 5384 5387 5390 5395 5400 5406 5413 5419 5425 5430 5433 5440 5447 5453 5458 5463 5468 5474 5479 5484 5490 5495 5499 5503 5505 5507 5511 5515 5518 5525 5531 5534 5533 5534 5536 5538 5538 5538 5538 5539 5539 5539 5540 5540 5541 5541 5541 5541 5540 5539 5538
5375 5377 5379 5382 5384 5387 5391 5394 5399 5406 5412 5419 5424 5429 5434 5439 5445 5451 5456 5460 5464 5469 5473 5478 5482 5487 5490 5494 5497 5498 5502 5507 5513 5515 5517 5518 5521 5523 5525 5526 5526 5527 5528 5528 5528 5529 5529 5528 5528 5528 5527 5526 5525 5524
5373 5375 5377 5379 5382 5384 5387 5391 5395 5400 5405 5411 5416 5422 5427 5432 5437 5442 5446 5449 5453 5458 5461 5465 5470 5475 5480 5482 5485 5488 5492 5496 5498 5501 5504 5507 5509 5511 5512 5513 5515 5516 5516 5517 5517 5517 5517 5517 5516 5515 5514 5512 5510 5508
5371 5373 5375 5377 5379 5381 5384 5387 5391 5395 5399 5403 5408 5413 5417 5423 5427 5432 5437 5441 5445 5447 5450 5455 5460 5463 5466 5470 5474 5477 5481 5484 5487 5490 5492 5495 5496 5498 5500 5502 5503 5504 5505 5506 5506 5505 5505 5504 5503 5501 5499 5498 5495 5493
5368 5370 5372 5374 5376 5378 5382 5384 5387 5389 5393 5397 5402 5406 5410 5414 5418 5423 5427 5432 5435 5439 5442 5446 5449 5452 5456 5460 5464 5467 5470 5473 5476 5478 5481 5483 5485 5487 5488 5490 5491 5492 5492 5492 5492 5491 5490 5489 5487 5486 5484 5482 5480 5477
5366 5367 5368 5370 5373 5375 5377 5380 5383 5386 5388 5391 5395 5399 5403 5407 5410 5414 5418 5421 5425 5429 5433 5437 5439 5443 5445 5449 5452 5456 5460 5462 5465 5467 5470 5471 5473 5474 5476 5477 5477 5478 5477 5477 5477 5476 5475 5474 5473 5471 5469 5466 5463 5461
5364 5364 5364 5365 5366 5369 5372 5374 5377 5380 5382 5385 5388 5391 5395 5399 5402 5405 5409 5412 5415 5419 5422 5427 5430 5433 5436 5439 5441 5445 5448 5452 5454 5456 5458 5460 5461 5462 5463 5463 5463 5463 5463 5462 5462 5462 5461 5459 5458 5455 5452 5449 5446 5442
5359 5360 5360 5361 5362 5363 5365 5367 5370 5373 5377 5379 5383 5385 5387 5390 5394 5397 5400 5403 5406 5409 5413 5417 5420 5424 5427 5430 5432 5434 5436 5438 5440 5443 5445 5446 5447 5448 5449 5449 5450 5450 5449 5448 5447 5445 5443 5441 5439 5436 5433 5430 5427 5423
5355 5355 5356 5356 5358 5358 5360 5361 5363 5364 5368 5371 5374 5377 5379 5382 5385 5389 5391 5394 5397 5400 5403 5406 5408 5411 5414 5417 5419 5421 5424 5426 5428 5430 5431 5432 5432 5433 5433 5433 5432 5432 5431 5430 5429 5428 5426 5424 5421 5419 5416 5413 5409 5406
5351 5351 5351 5352 5352 5353 5354 5355 5357 5358 5359 5361 5363 5367 5371 5374 5377 5379 5381 5384 5387 5390 5393 5396 5398 5400 5403 5405 5407 5410 5411 5413 5414 5415 5416 5417 5418 5418 5418 5417 5417 5416 5415 5414 5413 5411 5409 5407 5405 5402 5398 5396 5393 5391
5349 5349 5349 5349 5349 5350 5350 5351 5352 5353 5354 5356 5357 5358 5360 5362 5365 5369 5372 5375 5377 5379 5381 5384 5386 5388 5391 5393 5395 5397 5398 5399 5401 5402 5402 5403 5403 5403 5402 5402 5401 5400 5399 5398 5397 5395 5394 5391 5389 5387 5385 5383 5381 5379
5345 5345 5345 5345 5345 5346 5346 5347 5348 5349 5350 5351 5352 5353 5355 5357 5358 5360 5363 5365 5367 5370 5372 5374 5376 5378 5380 5382 5384 5385 5387 5387 5388 5389 5389 5389 5389 5389 5388 5388 5388 5387 5386 5385 5383 5382 5381 5380 5378 5376 5375 5373 5371 5369
5344 5344 5344 5344 5345 5345 5346 5347 5348 5349 5349 5349 5349 5350 5351 5353 5355 5358 5359 5361 5363 5364 5366 5368 5369 5370 5372 5374 5375 5375 5376 5377 5378 5379 5379 5380 5380 5380 5380 5380 5379 5378 5377 5377 5375 5373 5372 5370 5368 5366 5363 5361 5359 5356
5346 5346 5346 5347 5347 5348 5348 5349 5349 5349 5349 5349 5349 5348 5350 5351 5355 5357 5358 5360 5362 5363 5364 5366 5367 5368 5369 5370 5371 5372 5373 5374 5375 5375 5376 5376 5375 5375 5374 5373 5372 5370 5368 5367 5365 5363 5361 5359 5356 5353 5350 5348 5345 5343
5349 5349 5349 5348 5348 5349 5349 5350 5350 5350 5351 5351 5351 5352 5353 5354 5356 5358 5359 5360 5362 5363 5364 5366 5367 5368 5369 5369 5369 5370 5370 5371 5371 5371 5370 5370 5369 5368 5366 5364 5362 5361 5359 5357 5356 5353 5350 5347 5344 5341 5338 5336 5333 5331
5353 5353 5352 5352 5351 5350 5350 5350 5350 5351 5352 5352 5353 5354 5355 5356 5357 5358 5359 5361 5362 5363 5364 5365 5365 5366 5366 5366 5367 5367 5366 5366 5365 5365 5364 5363 5361 5360 5358 5357 5355 5353 5351 5349 5346 5343 5340 5337 5334 5332 5330 5328 5327 5325
5355 5354 5354 5354 5353 5353 5352 5351 5351 5351 5351 5352 5353 5354 5355 5356 5357 5358 5359 5360 5361 5362 5362 5363 5363 5364 5364 5364 5364 5363 5363 5362 5361 5360 5358 5357 5355 5353 5351 5350 5347 5345 5343 5340 5338 5337 5335 5333 5332 5330 5329 5328 5327 5326
5355 5355 5355 5355 5354 5354 5353 5353 5352 5352 5352 5352 5352 5353 5354 5355 5356 5357 5358 5358 5359 5360 5360 5361 5361 5361 5361 5360 5360 5359 5358 5357 5355 5354 5353 5351 5349 5347 5345 5343 5342 5340 5339 5338 5337 5336 5334 5333 5332 5331 5329 5328 5327 5326
5352 5352 5352 5352 5352 5352 5352 5352 5352 5352 5352 5352 5352 5353 5354 5355 5355 5356 5357 5357 5358 5358 5358 5358 5358 5358 5358 5357 5356 5355 5354 5352 5350 5349 5347 5345 5343 5342 5340 5339 5339 5338 5338 5337 5337 5336 5334 5333 5331 5330 5329 5328 5327 5327
Wind_Speed
66 68 70 72 74 76 77 77 78 78 79 79 80 80 81 81 80 82 78 76 75 72 67 63 60 56 49 45 41 39 36 36 31 27 24 21 17 13 11 9 8 8 7 5 4 4 4 5 6 5 5 5 4 3
67 71 73 75 78 79 79 79 82 86 89 89 89 90 93 94 93 92 90 83 81 76 68 67 65 59 54 49 45 44 38 37 32 30 27 24 21 18 16 13 12 11 9 9 8 6 4 4 3 2 2 3 3 4
74 77 78 79 80 81 82 81 76 76 78 78 83 91 94 93 96 94 91 85 87 81 77 72 67 62 56 52 49 45 39 37 29 29 25 23 23 21 19 18 17 16 15 14 12 11 10 11 12 12 12 12 13 15
77 76 67 66 63 58 48 37 35 39 51 57 64 71 71 70 60 57 60 66 72 72 60 77 69 64 58 54 51 46 41 37 31 24 17 15 15 16 18 18 19 17 17 18 19 18 17 17 17 18 18 18 19 20
56 46 42 40 36 28 21 16 16 25 27 34 31 31 46 48 43 51 60 58 56 61 56 68 64 61 58 55 52 46 41 37 33 30 26 23 22 22 21 19 19 19 20 20 21 22 20 20 21 21 21 21 21 22
33 31 25 25 26 25 17 15 10 1 10 12 14 27 37 51 41 42 50 47 50 60 61 57 60 60 58 56 53 48 43 40 38 37 32 28 27 27 26 24 25 26 25 24 25 26 26 25 24 24 23 23 23 23
26 22 22 24 26 27 19 19 15 9 5 9 21 31 41 37 45 42 47 51 58 44 45 55 59 58 57 55 52 48 45 43 40 38 35 32 30 29 27 25 28 31 31 29 29 29 30 30 28 27 27 27 27 28
22 22 21 18 26 25 23 18 20 14 17 13 29 34 37 36 39 40 38 31 61 52 57 46 46 57 55 54 49 46 47 46 42 40 38 36 36 33 30 27 29 32 33 32 31 30 30 31 31 31 31 31 32 33
23 19 17 14 22 26 30 21 18 22 14 34 26 36 41 23 39 30 46 44 48 60 46 49 61 55 49 53 50 49 47 47 44 42 40 40 38 36 33 33 32 33 34 35 36 33 32 32 34 35 36 36 36 37
23 19 17 15 18 24 35 28 23 25 21 27 32 38 33 39 31 31 34 53 55 56 63 55 50 38 49 50 49 48 46 46 46 44 43 42 41 38 36 35 36 35 34 35 37 37 36 35 35 36 37 38 39 39
21 20 15 16 18 24 36 32 30 28 21 30 37 44 40 40 48 34 32 30 51 53 54 46 35 41 41 42 44 46 47 47 46 45 45 45 43 41 40 39 39 41 39 36 36 39 39 38 38 38 39 39 39 39
20 19 14 16 21 28 35 34 40 36 31 36 33 32 37 39 46 38 46 37 29 39 55 44 46 47 50 47 45 44 45 46 47 47 47 47 46 44 43 41 40 40 41 40 39 39 40 41 41 41 41 41 42 42
18 16 13 13 19 27 32 36 34 36 36 36 35 36 35 43 47 43 31 43 42 39 34 40 47 46 45 47 47 47 47 49 52 53 50 48 47 47 43 41 40 40 40 40 40 40 40 40 41 41 41 42 42 41
16 15 13 13 17 26 31 38 43 37 34 38 35 39 37 33 39 42 44 46 49 47 46 46 47 44 41 42 45 47 50 53 55 54 48 48 51 47 42 40 40 39 38 38 39 39 40 39 38 37 38 39 40 40
13 14 14 13 14 19 29 36 41 46 39 42 43 43 44 38 34 34 40 43 46 48 48 45 40 40 43 47 53 56 57 57 51 47 49 46 41 39 38 37 37 37 37 37 37 38 38 37 37 37 37 38 40 42
12 13 12 13 15 16 21 27 32 39 44 48 46 44 40 42 41 36 40 45 46 45 47 52 49 48 42 38 35 37 42 49 51 48 43 40 39 38 36 35 35 36 36 37 37 37 37 37 37 38 39 41 43 45
11 12 12 12 13 15 17 20 26 32 38 46 48 51 50 57 51 45 41 42 43 43 45 42 40 42 44 42 39 38 39 41 41 39 37 37 38 36 36 36 36 36 37 37 37 37 37 38 38 40 43 45 47 49
9 11 12 13 13 13 15 18 21 25 30 34 39 44 50 52 49 46 41 40 39 38 40 42 40 41 39 36 34 33 34 36 38 38 38 37 37 38 38 37 36 36 36 38 39 40 41 42 43 45 47 47 48 49
9 10 11 12 12 13 14 15 17 19 23 28 32 37 38 40 41 41 42 42 41 40 39 41 40 38 36 35 33 33 35 37 38 39 39 40 40 40 39 38 39 40 40 41 43 45 46 48 47 47 48 49 51 53
11 12 13 14 15 15 15 15 17 18 20 21 25 28 32 35 37 39 40 41 40 39 37 37 38 38 37 38 38 39 40 41 42 42 42 42 42 42 43 43 44 44 45 46 48 49 49 49 50 51 53 55 57 58
13 15 16 16 16 16 17 18 19 19 20 22 23 23 25 28 30 33 35 35 37 38 39 40 42 44 44 44 44 43 44 44 45 46 47 47 47 47 48 49 50 51 51 51 51 51 52 53 54 55 57 58 59 59
14 14 16 16 17 18 19 19 19 20 22 24 24 26 27 28 28 29 30 32 34 34 36 38 41 43 46 48 50 52 52 52 52 52 51 52 52 51 51 51 51 51 51 52 52 53 54 56 57 58 58 58 58 58
14 14 14 15 16 17 18 19 20 21 22 23 24 26 28 30 31 32 33 34 35 35 36 36 37 38 38 39 41 43 44 45 46 46 46 47 47 48 49 50 51 51 53 54 55 56 57 56 55 55 54 54 53 52
11 11 11 11 12 13 13 14 15 17 18 20 21 23 27 29 31 33 34 35 36 36 37 37 38 39 40 41 42 43 44 45 45 46 47 48 49 50 50 51 52 52 53 53 53 52 51 51 51 50 48 45 43 41
6 8 8 9 9 11 11 11 11 12 12 13 15 17 20 22 24 26 28 30 32 34 35 37 37 39 39 41 42 43 44 44 45 45 46 46 46 46 46 46 47 46 46 46 45 43 42 41 39 38 37 36 36 36
9 7 6 5 5 6 7 8 8 9 11 11 13 14 14 15 15 16 16 17 18 20 23 26 28 30 32 34 34 35 36 37 37 38 37 36 35 35 35 34 33 31 31 31 31 31 32 32 33 33 32 33 34 35
5 5 6 8 9 11 11 11 10 8 5 3 5 10 12 14 12 8 6 6 7 8 8 9 10 12 14 14 16 18 18 19 20 20 18 15 15 16 18 20 22 24 24 24 25 26 28 30 32 33 34 36 37 37
12 10 10 11 11 12 12 12 11 10 8 6 7 6 7 9 9 8 6 6 5 5 6 6 6 7 7 6 6 5 5 6 7 9 12 14 15 16 17 18 20 22 24 25 27 28 30 31 32 33 34 35 36 36
19 15 13 11 8 8 8 9 10 11 10 10 10 11 12 14 13 12 10 8 7 7 6 5 4 3 2 4 6 7 9 10 10 11 13 15 17 19 21 23 23 24 24 25 25 28 31 34 35 35 35 33 31 28
17 17 20 19 16 12 9 5 4 5 7 7 6 6 6 6 6 5 4 4 4 4 4 4 4 4 4 4 5 7 9 12 14 16 17 17 18 19 19 20 20 21 23 25 27 28 26 23 20 15 11 8 6 4
12 13 12 12 13 14 13 11 9 5 3 3 4 5 5 6 5 4 4 3 4 4 4 3 2 3 6 8 11 13 14 15 15 16 17 18 18 18 17 18 20 22 21 20 16 11 8 6 5 4 4 4 3 3
8 10 11 10 11 12 11 10 9 7 6 6 4 3 4 5 5 4 4 4 3 2 3 5 7 9 11 12 12 13 14 14 15 15 15 15 14 15 17 16 13 11 8 4 2 2 3 3 4 4 4 4 3 3
16 16 16 17 16 14 10 8 8 7 5 2 1 1 2 4 5 5 4 3 4 5 6 8 9 10 11 11 12 14 15 16 16 14 15 16 16 13 8 6 4 1 0 1 1 3 4 5 4 4 4 4 3 3
Wind_Direction
270 271 270 270 269 269 269 267 265 265 264 261 258 257 256 257 255 254 254 249 247 251 249 244 241 240 240 240 243 246 252 262 243 239 244 248 249 259 268 281 296 309 320 336 0 32 62 55 67 76 77 74 77 87
273 273 273 273 273 272 271 272 271 270 268 266 262 259 258 257 256 256 252 247 242 239 237 236 234 233 234 236 238 242 246 254 248 235 235 239 243 247 250 261 265 278 286 297 304 300 287 287 287 278 274 297 308 300
275 275 275 276 277 278 278 279 279 276 271 267 265 263 259 255 251 247 241 234 230 231 228 227 228 229 229 230 234 235 237 248 251 239 230 228 234 238 243 250 255 260 266 272 273 275 277 278 277 275 275 276 278 277
277 279 279 280 279 279 278 263 261 274 270 261 253 244 239 238 240 236 217 219 225 222 227 221 220 221 224 226 229 228 230 239 238 246 240 240 249 254 259 259 262 262 270 274 276 274 272 271 273 274 274 273 273 274
279 277 271 268 265 255 235 241 270 304 277 260 236 228 218 217 221 195 208 216 213 205 221 219 215 215 218 221 222 222 223 227 231 234 237 237 244 246 249 257 266 270 270 270 272 276 278 277 280 278 277 278 280 282
267 261 258 258 236 233 226 228 207 208 67 100 146 179 182 165 169 181 188 192 201 200 213 213 211 214 214 217 217 217 220 222 226 235 235 240 247 253 255 260 266 270 276 275 273 271 273 275 278 277 278 280 283 287
254 248 245 250 232 210 211 212 184 183 232 155 152 145 157 172 184 186 193 192 196 197 202 213 210 213 213 214 216 217 221 224 226 231 236 238 243 254 261 273 276 273 272 273 270 272 272 271 273 274 275 278 280 285
245 239 245 243 230 206 200 194 199 177 149 150 159 152 158 175 169 180 185 197 199 201 208 209 208 212 213 214 214 217 223 226 229 232 236 241 245 256 266 279 274 274 275 272 269 271 273 272 270 270 273 277 279 283
238 236 244 231 227 201 194 195 195 157 151 150 160 175 175 176 193 191 201 194 193 198 201 202 210 212 210 216 217 220 225 230 231 236 241 244 248 258 273 277 273 268 275 275 269 271 274 274 273 272 273 275 278 282
239 238 242 221 212 206 187 194 185 191 171 172 174 180 190 192 185 190 185 196 200 205 211 213 224 215 209 216 220 224 230 235 237 238 242 247 252 261 273 276 271 270 274 274 271 271 273 275 276 276 276 278 281 283
241 241 246 221 200 195 185 193 189 184 192 191 182 177 193 194 204 204 185 195 208 205 201 210 211 214 218 221 226 231 236 241 244 246 249 249 252 261 272 272 272 272 273 270 269 269 272 274 275 276 277 278 280 282
242 242 233 217 195 194 191 186 183 178 193 180 184 193 201 202 197 216 220 215 208 211 212 214 219 222 223 226 232 235 241 244 247 248 249 252 254 262 271 270 271 271 271 270 268 268 269 271 273 274 276 279 280 282
242 243 229 210 199 193 191 191 189 193 203 208 218 213 207 209 215 218 222 223 231 222 216 219 224 227 229 236 240 244 246 248 247 249 252 254 257 264 268 268 270 270 269 268 269 269 269 269 270 272 274 275 277 278
243 244 230 214 196 192 195 195 189 191 200 208 211 212 215 225 224 226 229 230 231 230 229 232 232 235 239 246 249 250 249 249 251 252 255 259 266 263 266 269 269 269 268 266 266 267 267 268 269 270 271 273 274 276
236 239 235 224 207 195 196 198 202 205 212 213 210 205 213 215 222 227 230 234 237 239 241 242 242 245 248 253 256 251 252 254 255 257 259 258 258 261 263 264 264 263 263 262 262 263 265 267 268 269 271 274 276 280
228 233 236 228 218 207 199 196 199 202 203 205 210 214 222 222 224 228 232 234 240 243 242 241 246 241 239 247 252 248 249 249 249 253 253 253 255 259 260 258 259 261 262 263 263 264 265 267 269 272 275 278 281 284
224 228 232 233 225 215 210 205 199 205 206 209 216 219 219 214 220 238 240 237 239 243 242 243 236 234 243 255 256 246 242 243 246 246 250 254 257 258 258 259 259 260 263 265 266 266 267 269 272 276 279 283 286 288
232 228 233 230 227 225 221 215 209 204 205 209 214 219 222 222 226 226 225 229 237 237 236 234 238 249 252 251 249 248 248 246 245 247 250 253 255 256 257 260 261 263 264 265 264 268 272 277 280 282 285 287 289 290
254 250 245 242 241 234 226 224 222 218 213 206 210 215 218 220 222 224 226 228 228 229 231 236 242 243 244 244 244 244 246 248 249 250 251 254 256 257 259 259 261 265 268 268 271 275 279 282 283 285 286 287 287 287
261 261 259 254 247 244 240 234 227 224 224 223 219 214 213 217 222 226 227 228 228 228 229 232 236 238 240 244 247 247 248 249 250 251 253 255 257 260 262 263 265 269 272 273 274 276 277 279 280 281 282 283 285 287
259 259 256 255 256 252 244 240 237 231 229 229 229 228 227 223 221 221 222 225 228 231 231 232 232 235 237 239 245 245 245 247 250 253 255 258 260 262 264 266 270 272 272 272 272 273 274 275 278 281 283 285 287 288
262 259 258 256 255 255 254 250 244 237 234 232 232 231 232 232 231 231 231 232 232 232 231 230 230 232 234 236 239 243 248 251 253 254 255 256 259 260 261 263 265 267 269 272 274 277 279 282 284 286 288 289 289 289
266 262 259 257 254 251 252 250 249 248 244 238 234 233 234 235 237 237 237 236 237 237 238 239 240 242 242 243 244 244 246 248 251 255 258 261 264 265 268 270 273 275 277 279 280 282 283 284 286 286 286 287 287 287
269 263 258 255 250 251 252 250 249 252 250 251 250 242 236 235 234 237 240 241 242 243 243 244 245 246 248 250 252 254 255 257 259 260 262 264 266 269 271 273 275 277 278 279 280 281 282 283 284 284 285 285 285 287
263 269 261 252 255 255 251 251 252 253 251 245 242 245 247 249 246 243 242 243 245 246 247 248 248 250 251 253 255 257 260 263 265 266 268 269 271 272 273 275 276 277 278 279 281 282 282 282 282 282 284 287 289 289
284 278 276 248 249 239 233 230 224 232 240 244 241 240 239 242 246 249 249 247 246 246 248 249 251 254 256 258 260 261 262 263 265 266 267 268 270 271 272 274 276 276 276 276 278 279 280 282 285 285 285 285 285 286
115 116 114 120 126 128 128 129 129 127 132 188 220 224 225 225 225 220 203 202 206 207 216 227 236 243 248 250 253 254 256 258 259 260 261 261 263 265 267 270 273 275 278 278 278 280 282 282 283 284 286 286 286 287
98 101 100 104 107 112 117 118 115 113 113 98 95 118 141 153 161 166 173 174 182 179 178 187 189 177 172 175 184 189 200 214 226 240 249 251 257 265 269 274 278 282 284 286 286 287 288 289 289 289 288 290 291 291
76 76 78 81 99 110 109 110 108 101 94 88 92 101 112 122 121 122 127 121 123 136 145 156 167 191 237 253 253 253 253 256 260 267 274 280 283 285 288 289 291 291 292 294 295 294 294 294 294 293 292 290 289 290
70 67 64 61 58 59 66 91 120 133 134 119 112 120 126 134 136 137 137 145 153 174 189 218 234 252 255 244 254 269 278 282 286 288 290 290 292 292 294 293 295 295 295 296 296 297 298 299 300 304 307 312 321 336
34 35 38 41 42 43 42 45 52 69 110 133 147 154 164 170 177 189 198 203 206 206 206 209 243 273 278 281 283 284 284 287 288 290 293 294 293 294 296 300 302 303 303 304 308 312 319 333 353 20 46 55 47 28
328 340 355 6 11 7 9 19 26 35 48 65 105 151 186 189 189 189 191 192 199 236 267 285 294 293 294 293 293 295 298 299 301 303 302 298 299 305 307 304 301 300 306 313 359 25 12 354 348 346 347 357 19 40
296 302 309 314 318 326 338 339 335 338 340 337 294 238 222 222 213 204 217 249 276 289 294 293 289 288 290 292 295 298 301 303 304 308 310 309 310 309 309 308 306 309 11 27 16 343 345 3 16 23 16 19 42 56